Powrót do katalogu

THOR ABLESTAR DEB

AktywnyLEO
NORAD 141·DEBRIS·🇺🇸 United States

Wystrzelony Jun 29, 1961 z Cape Canaveral Space Force Station

Loading…

Następne Przeloty (najbliższe 24 godziny)

TLE

ŚwieżeSource: Space-Track

Epoka: Sep 14, 2026, 04:40 UTC

1 00141U 61015AB  26257.19460811  .00000142  00000-0  17881-3 0  9996
2 00141  66.5885 185.5916 0055336 341.1399  18.7626 13.89063206284184

Śledź THOR ABLESTAR DEB w czasie rzeczywistym z AllMySat

Download on the App Store